Lakeville, MN

1:15 PM CDT on May 24, 2017 (GMT -0500)
Airlake

Weather History for KLVN - March, 2012

Change the Weather History Date:

Tuesday, March 27, 2012

  Actual Average Record
Temperature  
Mean Temperature 52 °F -  
Max Temperature 66 °F 47 °F 71 °F (1991)
Min Temperature 39 °F 26 °F 5 °F (1998)
Degree Days  
Heating Degree Days 12    
Growing Degree Days 2 (Base 50)    
Moisture  
Dew Point 40 °F    
Average Humidity 61    
Maximum Humidity 76    
Minimum Humidity 37    
Precipitation  
Precipitation 0.00 in - - ()
Sea Level Pressure  
Sea Level Pressure 29.69 in    
Wind  
Wind Speed 18 mph (SSW)    
Max Wind Speed 26 mph    
Max Gust Speed 36 mph    
Visibility 10 miles    
Events Thunderstorm    
Averages and records for this station are not official NWS values.
T = Trace of Precipitation, MM = Missing Value Source: NWS Daily Summary

Daily Weather History Graph

Daily Weather History Graph

Search for Another Location

Airport or City:

Trip Planner

Search our weather history database for the weather conditions in past years. The results will help you decide how hot, cold, wet, or windy it might be!

Date:

Astronomy

Mar. 27, 2012 Rise Set
Actual Time 7:02 AM CDT 7:34 PM CDT
Civil Twilight 6:32 AM CDT 8:04 PM CDT
Nautical Twilight 5:58 AM CDT 8:38 PM CDT
Astronomical Twilight 5:22 AM CDT 9:14 PM CDT
Moon 9:21 AM CDT (3/27) No Moon Set
Length of Visible Light 13h 31m
Length of Day
12h 32m
Waxing Crescent, 22% of the Moon is Illuminated
Mar 27
Waxing Crescent
Mar 30
First Quarter
Apr 6
Full
Apr 13
Last Quarter
Apr 21
New

Hourly Weather History & Observations

Time (CDT) Temp. Windchill Dew Point Humidity Pressure Visibility Wind Dir Wind Speed Gust Speed Precip Events Conditions
12:12 AM 39.2 °F 30.8 °F 30.2 °F 70% 29.91 in 10.0 mi SE 15.0 mph 23.0 mph N/A   Clear
12:33 AM 39.2 °F 30.8 °F 30.2 °F 70% 29.90 in 10.0 mi SE 15.0 mph 23.0 mph N/A   Clear
12:52 AM 39.2 °F 31.6 °F 30.2 °F 70% 29.89 in 10.0 mi SE 12.7 mph 21.9 mph N/A   Clear
1:12 AM 41.0 °F 32.5 °F 30.2 °F 65% 29.88 in 10.0 mi SE 17.3 mph 24.2 mph N/A   Clear
1:33 AM 41.0 °F 32.5 °F 30.2 °F 65% 29.87 in 10.0 mi SE 17.3 mph 24.2 mph N/A   Clear
1:52 AM 42.8 °F 34.5 °F 30.2 °F 61% 29.86 in 10.0 mi SE 18.4 mph 25.3 mph N/A   Clear
2:12 AM 42.8 °F 34.5 °F 30.2 °F 61% 29.85 in 10.0 mi SE 18.4 mph 26.5 mph N/A   Clear
2:33 AM 42.8 °F 34.5 °F 30.2 °F 61% 29.84 in 10.0 mi SE 18.4 mph 27.6 mph N/A Thunderstorm Clear
2:52 AM 42.8 °F 34.3 °F 30.2 °F 61% 29.83 in 10.0 mi SE 19.6 mph 26.5 mph N/A   Clear
3:12 AM 42.8 °F 34.0 °F 30.2 °F 61% 29.80 in 10.0 mi SE 20.7 mph 25.3 mph N/A   Clear
3:33 AM 42.8 °F 34.8 °F 32.0 °F 66% 29.81 in 10.0 mi SE 17.3 mph 28.8 mph N/A   Clear
3:52 AM 42.8 °F 36.2 °F 33.8 °F 70% 29.83 in 10.0 mi SSE 12.7 mph 21.9 mph N/A   Scattered Clouds
4:13 AM 44.6 °F 36.9 °F 33.8 °F 66% 29.78 in 10.0 mi SSE 18.4 mph 24.2 mph N/A   Clear
4:32 AM 44.6 °F 36.6 °F 35.6 °F 71% 29.76 in 10.0 mi SSE 19.6 mph 31.1 mph N/A   Scattered Clouds
4:53 AM 44.6 °F 36.1 °F 35.6 °F 71% 29.74 in 10.0 mi SSE 21.9 mph 32.2 mph N/A   Drizzle
5:13 AM 44.6 °F 36.6 °F 35.6 °F 71% 29.73 in 10.0 mi SSE 19.6 mph 34.5 mph N/A Thunderstorm Scattered Clouds
5:32 AM 44.6 °F 35.9 °F 35.6 °F 71% 29.71 in 10.0 mi SSE 23.0 mph 32.2 mph N/A   Mostly Cloudy
5:53 AM 44.6 °F 36.6 °F 35.6 °F 71% 29.71 in 10.0 mi SSE 19.6 mph 28.8 mph N/A Thunderstorm Mostly Cloudy
6:13 AM 44.6 °F 36.1 °F 37.4 °F 76% 29.69 in 10.0 mi SSE 21.9 mph 31.1 mph N/A   Mostly Cloudy
6:32 AM 44.6 °F 36.6 °F 37.4 °F 76% 29.69 in 10.0 mi SSE 19.6 mph 29.9 mph N/A   Overcast
6:53 AM 46.4 °F 38.5 °F 37.4 °F 71% 29.67 in 10.0 mi SSE 21.9 mph 31.1 mph N/A   Overcast
7:13 AM 46.4 °F 39.2 °F 39.2 °F 76% 29.67 in 10.0 mi South 18.4 mph 27.6 mph N/A   Overcast
7:32 AM 46.4 °F 38.1 °F 39.2 °F 76% 29.66 in 10.0 mi South 24.2 mph 32.2 mph N/A   Overcast
7:53 AM 46.4 °F 38.7 °F 39.2 °F 76% 29.66 in 10.0 mi South 20.7 mph 26.5 mph N/A   Overcast
8:13 AM 48.2 °F - 41.0 °F 76% 29.64 in 10.0 mi SSE 17.3 mph 24.2 mph N/A   Scattered Clouds
8:32 AM 50.0 °F - 42.8 °F 76% 29.64 in 10.0 mi South 13.8 mph 21.9 mph N/A   Clear
8:53 AM 51.8 °F - 42.8 °F 71% 29.63 in 10.0 mi South 23.0 mph 28.8 mph N/A   Clear
9:12 AM 53.6 °F - 44.6 °F 72% 29.62 in 10.0 mi South 21.9 mph 31.1 mph N/A   Clear
9:32 AM 55.4 °F - 46.4 °F 72% 29.62 in 10.0 mi South 24.2 mph 35.7 mph N/A   Clear
9:53 AM 55.4 °F - 46.4 °F 72% 29.62 in 10.0 mi South 24.2 mph 31.1 mph N/A   Clear
10:12 AM 57.2 °F - 48.2 °F 72% 29.61 in 10.0 mi South 26.5 mph 34.5 mph N/A   Clear
10:33 AM 60.8 °F - 50.0 °F 68% 29.61 in 10.0 mi South 19.6 mph 29.9 mph N/A   Clear
10:52 AM 62.6 °F - 51.8 °F 68% 29.61 in 10.0 mi SSW 13.8 mph 33.4 mph N/A   Clear
11:13 AM 64.4 °F - 48.2 °F 56% 29.61 in 10.0 mi SW 16.1 mph 25.3 mph N/A   Scattered Clouds
11:33 AM 64.4 °F - 42.8 °F 45% 29.60 in 10.0 mi WSW 13.8 mph 28.8 mph N/A   Clear
11:52 AM 66.2 °F - 39.2 °F 37% 29.61 in 10.0 mi WSW 16.1 mph 26.5 mph N/A   Clear
12:13 PM 66.2 °F - 39.2 °F 37% 29.61 in 10.0 mi WSW 12.7 mph 28.8 mph N/A   Clear
12:32 PM 66.2 °F - 41.0 °F 40% 29.61 in 10.0 mi WSW 23.0 mph 34.5 mph N/A   Clear
12:52 PM 66.2 °F - 42.8 °F 43% 29.62 in 10.0 mi WSW 21.9 mph 31.1 mph N/A   Clear
1:13 PM 66.2 °F - 42.8 °F 43% 29.62 in 10.0 mi WSW 17.3 mph 27.6 mph N/A   Clear
1:32 PM 66.2 °F - 42.8 °F 43% 29.61 in 10.0 mi SW 13.8 mph 25.3 mph N/A   Clear
1:53 PM 66.2 °F - 42.8 °F 43% 29.61 in 10.0 mi West 25.3 mph 34.5 mph N/A   Scattered Clouds
2:13 PM 66.2 °F - 44.6 °F 46% 29.62 in 10.0 mi WSW 19.6 mph 33.4 mph N/A   Mostly Cloudy
2:32 PM 64.4 °F - 44.6 °F 49% 29.63 in 10.0 mi West 20.7 mph 32.2 mph N/A   Overcast
2:53 PM 64.4 °F - 44.6 °F 49% 29.63 in 10.0 mi West 20.7 mph 31.1 mph N/A   Mostly Cloudy
3:13 PM 64.4 °F - 46.4 °F 52% 29.63 in 10.0 mi West 18.4 mph 26.5 mph N/A   Mostly Cloudy
3:32 PM 66.2 °F - 46.4 °F 49% 29.63 in 10.0 mi West 16.1 mph 27.6 mph N/A   Mostly Cloudy
3:53 PM 64.4 °F - 44.6 °F 49% 29.63 in 10.0 mi West 19.6 mph 26.5 mph N/A   Mostly Cloudy
4:13 PM 64.4 °F - 44.6 °F 49% 29.63 in 10.0 mi West 16.1 mph 26.5 mph N/A   Overcast
4:32 PM 66.2 °F - 44.6 °F 46% 29.63 in 10.0 mi West 20.7 mph 31.1 mph N/A   Mostly Cloudy
4:53 PM 64.4 °F - 44.6 °F 49% 29.64 in 10.0 mi West 15.0 mph 26.5 mph N/A   Mostly Cloudy
5:13 PM 64.4 °F - 44.6 °F 49% 29.65 in 10.0 mi West 12.7 mph 25.3 mph N/A   Mostly Cloudy
5:32 PM 62.6 °F - 44.6 °F 52% 29.65 in 10.0 mi West 16.1 mph 24.2 mph N/A   Overcast
5:53 PM 62.6 °F - 44.6 °F 52% 29.66 in 10.0 mi West 25.3 mph 34.5 mph N/A   Overcast
6:13 PM - - - N/A% 29.67 in 10.0 mi West 25.3 mph - N/A   Overcast
6:32 PM 59.0 °F - 44.6 °F 59% 29.69 in 10.0 mi WNW 23.0 mph 32.2 mph N/A   Scattered Clouds
6:53 PM 57.2 °F - 42.8 °F 59% 29.70 in 10.0 mi West 25.3 mph 33.4 mph N/A   Scattered Clouds
7:12 PM 55.4 °F - 42.8 °F 63% 29.72 in 10.0 mi West 19.6 mph 33.4 mph N/A   Clear
7:33 PM 55.4 °F - 42.8 °F 63% 29.72 in 10.0 mi West 18.4 mph 27.6 mph N/A   Clear
7:53 PM 53.6 °F - 42.8 °F 67% 29.74 in 10.0 mi West 16.1 mph 21.9 mph N/A   Clear
8:12 PM 53.6 °F - 41.0 °F 62% 29.74 in 10.0 mi West 15.0 mph 25.3 mph N/A   Clear
8:32 PM 51.8 °F - 42.8 °F 71% 29.76 in 10.0 mi West 10.4 mph 16.1 mph N/A   Scattered Clouds
8:53 PM 51.8 °F - 42.8 °F 71% 29.77 in 10.0 mi West 12.7 mph 19.6 mph N/A   Scattered Clouds
9:12 PM 51.8 °F - 41.0 °F 67% 29.78 in 10.0 mi WNW 12.7 mph - N/A   Clear
9:33 PM 50.0 °F - 41.0 °F 71% 29.79 in 10.0 mi WNW 17.3 mph 21.9 mph N/A   Clear
9:53 PM 50.0 °F - 39.2 °F 66% 29.79 in 10.0 mi West 18.4 mph 26.5 mph N/A   Scattered Clouds
10:12 PM 48.2 °F - 39.2 °F 71% 29.81 in 10.0 mi West 13.8 mph 20.7 mph N/A   Scattered Clouds
10:33 PM 48.2 °F - 39.2 °F 71% 29.81 in 10.0 mi West 15.0 mph - N/A   Clear
10:53 PM 48.2 °F - 39.2 °F 71% 29.81 in 10.0 mi West 10.4 mph - N/A   Clear
11:12 PM 46.4 °F 39.5 °F 39.2 °F 76% 29.81 in 10.0 mi West 17.3 mph 25.3 mph N/A   Clear
11:33 PM 46.4 °F 41.9 °F 37.4 °F 71% 29.81 in 10.0 mi West 9.2 mph - N/A   Clear
11:53 PM 46.4 °F 40.7 °F 37.4 °F 71% 29.82 in 10.0 mi West 12.7 mph 17.3 mph N/A   Clear